Weather History for KLVK - March, 2013

Change the Weather History Date:

Thursday, March 28, 2013

  Actual Average Record
Temperature  
Mean Temperature 63 °F 54 °F  
Max Temperature 73 °F 65 °F 83 °F (2015)
Min Temperature 53 °F 43 °F 30 °F (1972)
Degree Days  
Heating Degree Days 2 11  
Month to date heating degree days 264 322  
Since 1 July heating degree days 2204 2329  
Cooling Degree Days 0 0  
Month to date cooling degree days 0 0  
Year to date cooling degree days 0 0  
Growing Degree Days 12 (Base 50)    
Moisture  
Dew Point 52 °F    
Average Humidity 70    
Maximum Humidity 93    
Minimum Humidity 47    
Precipitation  
Precipitation T in 0.07 in 0.96 in (1963)
Month to date precipitation 0.27 2.00  
Year to date precipitation 1.39 8.04  
Since 1 July precipitation 9.68  
Sea Level Pressure  
Sea Level Pressure 30.04 in    
Wind  
Wind Speed 3 mph (NW)    
Max Wind Speed 13 mph    
Max Gust Speed 17 mph    
Visibility 10 miles    
Events Rain    
T = Trace of Precipitation, MM = Missing Value Source: NWS Daily Summary

Daily Weather History Graph

Daily Weather History Graph

Search for Another Location

Airport or City:

Trip Planner

Search our weather history database for the weather conditions in past years. The results will help you decide how hot, cold, wet, or windy it might be!

Date:

Astronomy

Mar. 28, 2013 Rise Set
Actual Time 6:58 AM PDT 7:26 PM PDT
Civil Twilight 6:31 AM PDT 7:53 PM PDT
Nautical Twilight 6:00 AM PDT 8:24 PM PDT
Astronomical Twilight 5:29 AM PDT 8:55 PM PDT
Moon 9:21 PM PDT (3/28) 7:31 AM PDT (3/28)
Length of Visible Light 13h 21m
Length of Day
12h 28m
Full, 98% of the Moon is Illuminated
Mar 28
Full
Apr 2
Last Quarter
Apr 10
New
Apr 18
First Quarter
Apr 25
Full

Hourly Weather History & Observations

Time (PDT) Temp. Dew Point Humidity Pressure Visibility Wind Dir Wind Speed Gust Speed Precip Events Conditions
12:53 AM 55.0 °F 51.1 °F 86% 30.01 in 10.0 mi West 4.6 mph - N/A   Scattered Clouds
1:53 AM 55.9 °F 51.1 °F 84% 30.01 in 10.0 mi NW 3.5 mph - N/A   Overcast
2:53 AM 55.9 °F 51.1 °F 84% 30.01 in 10.0 mi Calm Calm - N/A   Overcast
3:09 AM 55.4 °F 51.8 °F 88% 30.01 in 10.0 mi Calm Calm - N/A   Overcast
3:53 AM 55.0 °F 51.1 °F 86% 30.01 in 10.0 mi ENE 3.5 mph - N/A   Overcast
4:48 AM 55.4 °F 51.8 °F 88% 30.01 in 10.0 mi Calm Calm - N/A   Overcast
4:53 AM 55.0 °F 51.1 °F 86% 30.01 in 10.0 mi NE 3.5 mph - N/A   Overcast
5:53 AM 54.0 °F 52.0 °F 93% 30.02 in 4.0 mi Calm Calm - 0.00 in Rain Light Rain
6:15 AM 55.4 °F 51.8 °F 88% 30.02 in 10.0 mi Calm Calm - 0.00 in   Overcast
6:53 AM 55.0 °F 53.1 °F 93% 30.02 in 10.0 mi Calm Calm - 0.00 in   Overcast
7:53 AM 55.9 °F 53.1 °F 90% 30.04 in 10.0 mi Calm Calm - N/A   Overcast
8:53 AM 57.0 °F 52.0 °F 83% 30.06 in 10.0 mi Calm Calm - N/A   Overcast
9:17 AM 57.2 °F 53.6 °F 88% 30.07 in 10.0 mi West 3.5 mph - N/A   Overcast
9:43 AM 59.0 °F 53.6 °F 82% 30.07 in 10.0 mi WSW 3.5 mph - N/A   Overcast
9:53 AM 59.0 °F 52.0 °F 78% 30.07 in 10.0 mi WSW 4.6 mph - N/A   Mostly Cloudy
10:53 AM 62.1 °F 51.1 °F 67% 30.07 in 10.0 mi Calm Calm - N/A   Mostly Cloudy
11:40 AM 64.4 °F 51.8 °F 64% 30.06 in 10.0 mi Variable 4.6 mph - N/A   Mostly Cloudy
11:48 AM 64.4 °F 50.0 °F 59% 30.06 in 10.0 mi SSW 4.6 mph - N/A   Mostly Cloudy
11:53 AM 64.9 °F 51.1 °F 61% 30.06 in 10.0 mi Calm Calm - N/A   Mostly Cloudy
12:53 PM 66.9 °F 52.0 °F 59% 30.06 in 10.0 mi Variable 3.5 mph - N/A   Mostly Cloudy
1:53 PM 69.1 °F 51.1 °F 53% 30.04 in 10.0 mi Variable 4.6 mph - N/A   Mostly Cloudy
2:53 PM 70.0 °F 51.1 °F 51% 30.03 in 10.0 mi Variable 3.5 mph - N/A   Mostly Cloudy
3:47 PM 69.8 °F 50.0 °F 49% 30.02 in 10.0 mi Variable 4.6 mph - N/A   Mostly Cloudy
3:53 PM 71.1 °F 51.1 °F 49% 30.01 in 10.0 mi West 6.9 mph - N/A   Mostly Cloudy
4:53 PM 71.1 °F 50.0 °F 47% 30.01 in 10.0 mi Variable 3.5 mph - N/A   Mostly Cloudy
5:00 PM 71.6 °F 51.8 °F 50% 30.01 in 10.0 mi NNW 5.8 mph - N/A   Mostly Cloudy
5:07 PM 71.6 °F 51.8 °F 50% 30.01 in 10.0 mi WNW 5.8 mph - N/A   Mostly Cloudy
5:53 PM 69.1 °F 52.0 °F 54% 30.01 in 10.0 mi NE 10.4 mph - N/A   Mostly Cloudy
6:00 PM 69.8 °F 51.8 °F 53% 30.01 in 10.0 mi ENE 10.4 mph - N/A   Partly Cloudy
6:53 PM 66.0 °F 52.0 °F 60% 30.02 in 10.0 mi NNE 8.1 mph - N/A   Partly Cloudy
7:53 PM 64.9 °F 53.1 °F 65% 30.04 in 10.0 mi NW 5.8 mph - N/A   Overcast
8:53 PM 61.0 °F 52.0 °F 72% 30.06 in 10.0 mi Calm Calm - N/A   Clear
9:53 PM 57.9 °F 51.1 °F 78% 30.07 in 10.0 mi WNW 3.5 mph - N/A   Partly Cloudy
10:53 PM 57.0 °F 51.1 °F 81% 30.08 in 10.0 mi NW 4.6 mph - N/A   Clear
11:53 PM 55.9 °F 50.0 °F 80% 30.08 in 10.0 mi Calm Calm - N/A   Clear